CZ-4 DEB, 26280

Orbit data source: Space-Track

CZ-4 DEB, 26280 is space debris in SSO originally from a launch on Thu, 14 Oct 1999 UTC launched from the Taiyaun Space Center, China (TSC). Debris objects in space refer to the collection of defunct objects orbiting the Earth. Examples of debris include non-operational satellites, rocket bodies, and fragments generated from explosions, collisions, or faulty payload assembly.

Loading next visibility...
Identifier
26280, 1999-057FS
Orbit
SSO
Country
Flag of CNCN / PRC
Related business
Manufacturer
Unknown
Mission
Spacecraft
Bus & Motor
Unknown
Mass
Unknown
Launch date (UTC)
1999-10-14 (26 years ago)
Launch vehicle
Unknown
Launch site
Taiyaun Space Center, China (TSC)
Object type
Payload
Rocket body
Debris
Shape & HBR
Unknown shape, 0.1 m
Radar Cross Section
Small (<0.1 m²)

Expand to show TLE details & history
Last TLE update: 7 hours ago

TLE from 7 hours ago
0 CZ-4 DEB
1 26280U 99057FS  25351.60746499  .00000287  00000-0  10553-3 0  9993
2 26280  98.7501  33.7499 0085086  10.0256 111.2654 14.38312189348360
Epoch: 2025-12-17T14:34Z
TLE epoch observation values (Epoch: 2025-12-17T14:34:44.975Z)
Latitude
56.85996°
Longitude
-77.8505°
Altitude
796.066 km
Speed
7.449 km/s
True Right ascension
15h 09m 14s
True Declination
56° 42' 11"
Sunlit
Object was in daylight at epoch
Visualization orbit readout
Latitude
Unknown
Longitude
Unknown
Altitude
Unknown
Speed
Unknown
Apparent Right ascension
Unknown
Apparent Declination
Unknown
Sunlit
N/A
Visualization observer readout
Local Sidereal Time
20:20:21
Azimuth
Unknown
Elevation
Unknown
Doppler factor
Unknown
Orbital elements
Apogee altitude
821.962 km
Perigee altitude
700.47 km
Semi-major axis
7,139.353 km
Eccentricity
0.00851
Inclination
98.7501°
RAAN
33.7499°
Arg. of periapsis
10.0256°
True anomaly
112.1705°
Mean anomaly
111.2654°
Eccentric anomaly
111.7183°
Mean motion
3.59795 °/min
Orbital period
100.06 mins
BSTAR
0.00010553
Loading maneuver chart data...
Computing Atmospheric mass density...

Documentation

Showing up to 5 results
|